Regional Weather Roundup
Issued by NWS

Home | Current Version | Previous Version | Graphics & Text | Print | Product List | Glossary On
Versions: 1 2 3 4 5 6 7 8 9 10 11 12 13 14 15 16 17 18 19 20 21 22 23 24 25 26 27 28 29 30 31 32 33 34 35 36 37 38 39 40 41 42 43 44 45 46 47 48 49 50
000
ASUS45 KTFX 271210
RWRMT
MONTANA REGIONAL WEATHER ROUNDUP
NATIONAL WEATHER SERVICE GREAT FALLS MT
600 AM MDT MON JUL 27 2015

NOTE: "FAIR" INDICATES FEW OR NO CLOUDS BELOW 12000 FEET WITH NO
SIGNIFICANT WEATHER AND/OR OBSTRUCTIONS TO VISIBILITY.

MTZ001>007-043-271300-
WEST OF THE DIVIDE

CITY           SKY/WX    TMP DP  RH WIND       PRES   REMARKS
KALISPELL      CLOUDY    49  41  74 W5        29.93S
MISSOULA       RAIN      52  50  93 N5        29.98R
BUTTE          CLOUDY    52  44  74 NW9       29.94F
MULLAN PASS    CLOUDY    43  35  73 NW6       30.02S
DEER LODGE       N/A     52  48  87 NW7       29.99R
EUREKA           N/A     46  43  87 CALM      29.97R
HAMILTON         N/A     54  52  94 NW6       29.96F
LIBBY            N/A     46  41  81 CALM      29.97R
PLAINS           N/A     56  43  61 CALM      29.96R
RONAN            N/A     53  48  83 CALM      30.00S
$$

MTZ008-052>055-271300-
SOUTHWEST MONTANA

CITY           SKY/WX    TMP DP  RH WIND       PRES   REMARKS
BOZEMAN        CLOUDY    56  51  84 SW12      29.90R
DILLON         LGT RAIN  54  49  83 SE5       29.92R
W YELLOWSTONE  PTCLDY    46  43  87 CALM      29.95R
TWIN BRIDGES     N/A     56  47  71 N18       29.87R
$$

MTZ009-010-012-014-046-048-049-054-271300-
EAST SLOPES AND CENTRAL MONTANA

CITY           SKY/WX    TMP DP  RH WIND       PRES   REMARKS
CUT BANK       CLOUDY    49  44  83 NW7       29.93F
GREAT FALLS    CLOUDY    54  51  90 W5        29.92R
MALMSTROM AFB  CLOUDY    56  51  82 W5        29.92R
HELENA         LGT RAIN  59  48  67 NW12      29.91S
CONRAD           N/A     53  51  93 W3        29.96R
$$

MTZ011-013-016-021-045-047-050-051-271300-
NORTH CENTRAL MONTANA

CITY           SKY/WX    TMP DP  RH WIND       PRES   REMARKS
HAVRE          HVY RAIN  60  59  96 W10       29.88R FOG
LEWISTOWN      LGT RAIN  57  56  96 NW5       29.88F
CHINOOK          N/A     61  61 100 S3        29.83R
FORT BENTON      N/A     57  55  94 CALM      29.91R
$$

MTZ017>020-022>027-061-062-271300-
NORTHEAST MONTANA

CITY           SKY/WX    TMP DP  RH WIND       PRES   REMARKS
GLASGOW        PTCLDY    65  55  70 N21G36    29.77F
JORDAN           N/A     64  57  78 N22       29.75S
SIDNEY         MOCLDY    64  57  77 E6        29.74F THUNDER
WOLF POINT     MOCLDY    66  59  78 NE6       29.77S
MALTA            N/A     61  56  83 N1        29.78F
PLENTYWOOD       N/A     64  61  88 NE6       29.81R
POPLAR           N/A     63  61  94 N6        29.76S
SCOBEY           N/A     58  53  83 N16       29.84R
$$

MTZ028>42-056>058-271300-
SOUTHCENTRAL AND SOUTHEAST MONTANA

CITY           SKY/WX    TMP DP  RH WIND       PRES   REMARKS
BAKER          CLEAR     62  54  74 E14       29.77S
BILLINGS       PTCLDY    60  51  72 N13       29.85F
LIVINGSTON     PTCLDY    55  50  83 SW3       29.87F
MILES CITY     CLEAR     69  58  67 SE14G22   29.71R
EKALAKA          N/A     65  55  69 SE24      29.74F
FORSYTH          N/A     64  54  68 W7        29.69S
LAUREL           N/A     61  48  62 CALM      29.86R
ROUNDUP          N/A     61  51  69 N10       29.76F
$$

REGIONAL REPORTS...DAKOTAS

CITY           SKY/WX    TMP DP  RH WIND       PRES   REMARKS
WILLISTON      MOCLDY    66  57  72 E5        29.76F
MINOT          MOCLDY    61  59  93 W3        29.82R
DICKINSON      PTCLDY    63  54  72 S8        29.77R
BEACH          FAIR      64  55  72 E8        29.79F
CROSBY         FAIR      59  59 100 N6        29.82F
BISMARCK       CLOUDY    68  58  70 E7        29.79S
GRAND FORKS    MOCLDY    67  65  93 S7        29.87R
FARGO          PTCLDY    72  67  84 SE8       29.89S
BUFFALO SD       N/A     62  56  80 SE16      29.74F
RAPID CITY     CLEAR     61  59  93 S7        29.83F
$$

REGIONAL REPORTS...WYOMING/IDAHO/WASHINGTON

CITY           SKY/WX    TMP DP  RH WIND       PRES   REMARKS
GILLETTE       PTCLDY    65  54  67 S12       29.79S
SHERIDAN       PTCLDY    62  46  55 NW22      29.78R
BUFFALO WY     PTCLDY    66  35  31 S9        29.81S
CODY           CLEAR     57  46  67 NE10      29.88S
YELLOWSTONE LA   N/A     39  35  86 CALM      30.03F
IDAHO FALLS    PTCLDY    57  45  64 S22G28    29.87R
SALMON         CLOUDY    54  48  82 NW6       29.89S
BOISE          CLOUDY    59  40  49 NW15      29.95R
SPOKANE        PTCLDY    54  44  69 CALM      29.97R
$$

REGIONAL REPORTS...ALBERTA

CITY           SKY/WX    TMP DP  RH WIND       PRES   REMARKS
EDMONTON       CLEAR     54  48  82 W7        29.91R
CALGARY        MOCLDY    45  41  87 VRB2      29.96R
LETHBRIDGE     PTCLDY    45  43  93 SW5       29.94R
MEDICINE HAT   PTCLDY    52  48  87 SW8       29.87S
WATERTON GATE    N/A     48  41  76 S6          N/A
CARDSTON         N/A     45  41  87 S1          N/A
MILK RIVER       N/A     50  46  87 NW7         N/A
ONEFOUR          N/A     52  48  87 W13         N/A
$$

REGIONAL REPORTS...SASKATCHEWAN

CITY           SKY/WX    TMP DP  RH WIND       PRES   REMARKS
SWIFT CURRENT  PTCLDY    57 N/A N/A SE10      29.86F
REGINA         LGT RAIN  61  57  88 N15       29.88F
SASKATOON      CLOUDY    59  54  82 E6        29.90S
CYPRESS HILLS    N/A     54  50  87 S3          N/A
VAL MARIE        N/A     59  57  94 NE12        N/A
ROCKGLEN         N/A     57  57 100 NW20G29     N/A
ASSINIBOIA       N/A     55  52  88 S7          N/A
$$


USA.gov is the U.S. government's official web portal to all federal, state and local government web resources and services.